Theta_e
298 299 299 299 300 300 298 299 301 301 300 300 297 294 292 291 291 291 291 290 289 289 288 288 288 288 287 287 287 286 286 286 286 285 285 285 285 285 285 285 285 286 286 285 285 285 285 284 284 284 283 283 283 283 283 283 283 282 282 281 281 281 280 280 279 279 280 280 280 280 280 280 280 280 279 279 279 279 279 278 277 277 277 277 277
298 298 299 298 298 298 299 299 299 299 299 297 294 292 290 290 290 290 290 290 289 289 288 288 288 287 287 287 286 286 286 286 285 285 285 285 285 285 285 285 286 286 286 286 285 285 285 284 284 283 283 283 283 283 283 282 282 282 282 281 281 281 280 279 279 278 278 279 279 279 279 279 279 279 278 278 279 279 278 277 276 276 276 276 276
298 298 298 297 297 297 298 299 298 297 297 295 292 290 289 290 290 290 290 289 289 288 288 288 288 287 287 286 286 286 286 286 285 285 285 285 285 285 285 286 286 286 286 286 285 285 284 284 284 283 283 283 283 282 282 282 282 282 281 281 281 280 280 279 279 278 277 278 278 278 278 278 278 278 278 278 278 278 278 276 276 276 276 276 276
298 297 297 296 295 295 296 297 296 295 295 293 291 290 289 289 289 289 289 289 289 288 288 288 287 287 286 286 286 286 286 285 285 285 285 284 285 286 286 286 286 286 286 286 285 285 284 284 283 283 283 283 282 282 282 282 282 281 281 281 280 280 280 279 278 278 277 276 277 277 277 278 278 277 277 277 277 277 277 276 276 276 276 275 275
297 296 295 294 294 293 294 294 294 293 293 291 290 289 288 288 288 288 289 289 288 288 288 287 287 287 286 286 286 286 286 285 285 285 285 284 285 285 286 286 286 286 286 285 285 284 284 284 283 283 283 282 282 282 282 282 281 281 281 280 280 279 279 279 278 277 276 276 276 277 277 277 277 277 276 277 277 277 276 276 276 276 275 275 275
295 295 294 293 292 292 292 292 292 292 290 290 289 289 288 288 288 288 288 288 288 288 287 287 287 287 286 286 286 286 286 285 285 285 285 284 284 285 285 285 285 285 285 285 284 284 283 283 283 282 282 282 282 282 282 281 281 281 280 280 280 279 279 278 278 277 276 276 276 276 276 276 276 276 276 276 276 276 276 276 276 275 275 274 274
294 294 294 293 292 292 291 291 291 291 290 289 289 289 288 288 288 288 288 288 288 288 287 287 287 286 286 286 286 286 285 285 285 285 284 284 284 285 285 285 285 285 285 284 284 283 283 283 282 282 282 282 282 282 281 281 281 281 280 280 279 279 278 278 277 277 276 276 276 276 276 276 276 275 276 276 275 275 275 275 275 275 274 274 274
293 294 293 292 292 291 291 290 290 290 289 289 288 288 288 287 287 288 288 288 288 288 288 287 287 286 286 286 286 285 285 285 285 285 284 284 284 285 285 285 286 286 286 285 284 283 283 282 282 282 282 282 282 281 281 280 280 280 280 280 279 279 278 278 277 276 276 276 276 276 275 275 275 275 276 276 275 275 275 274 274 274 274 274 273
293 293 293 292 291 291 290 290 289 289 288 288 288 288 287 287 287 288 288 288 288 288 287 287 286 286 286 286 285 285 285 285 285 285 285 284 285 285 285 286 287 287 287 286 284 284 283 282 282 282 282 282 281 281 280 280 280 280 280 279 279 278 278 277 277 276 276 276 275 275 275 275 275 276 276 276 275 275 274 274 274 274 274 273 273
293 292 292 292 291 290 290 289 288 288 288 287 287 287 287 287 287 287 287 287 287 287 287 286 286 286 286 286 286 285 285 285 285 285 285 285 285 285 285 286 287 288 288 286 285 284 283 282 282 282 282 281 281 280 280 280 280 280 279 279 278 278 277 277 277 276 276 276 275 275 274 275 275 276 276 276 275 274 274 274 274 274 273 273 272
293 292 292 292 291 290 289 289 288 288 288 288 287 287 287 287 286 286 286 286 286 286 286 286 286 286 286 286 286 285 285 285 285 285 285 285 285 285 285 286 288 289 288 287 286 285 283 282 282 282 282 282 281 280 280 280 280 279 279 279 278 278 277 277 277 277 276 276 275 275 274 275 275 276 276 275 275 274 274 273 273 274 273 273 272
292 292 292 292 291 290 290 289 289 288 288 287 287 287 286 286 285 285 285 285 285 285 285 286 286 286 286 286 285 285 285 285 285 285 285 285 285 285 285 287 289 290 290 288 287 286 284 283 283 283 283 282 281 280 280 280 279 279 278 278 278 278 277 277 277 277 276 276 275 275 275 275 276 276 276 275 275 274 274 274 274 273 273 272 272
292 292 292 291 291 290 290 289 288 288 287 287 286 286 285 285 285 285 285 285 285 285 285 286 286 285 285 285 285 285 286 286 286 286 285 285 285 285 285 287 290 291 291 289 288 287 286 284 284 284 283 282 281 280 280 280 279 278 278 278 278 278 278 278 278 277 277 276 275 275 275 275 276 276 276 275 274 274 274 274 274 273 272 272 272
291 291 291 291 290 290 289 288 288 287 287 286 286 285 285 285 285 285 285 285 285 285 285 285 285 285 285 285 286 286 286 286 286 286 285 285 285 285 286 288 291 291 291 290 289 288 287 286 285 285 284 283 282 281 280 280 279 279 278 277 278 278 278 278 278 278 277 277 276 276 276 276 276 276 275 275 275 274 274 274 273 272 272 271 271
290 290 290 290 290 289 288 288 287 287 286 286 286 285 285 285 285 285 285 285 285 285 285 285 285 285 286 286 286 286 286 286 286 286 286 286 286 285 286 288 290 291 290 290 290 289 288 286 286 286 285 283 283 281 281 280 280 279 278 278 278 277 277 277 278 277 277 277 277 277 276 276 276 276 275 275 275 275 274 273 273 272 271 271 270
290 290 290 290 289 289 288 288 287 287 286 286 286 285 285 285 285 285 285 285 285 284 284 285 285 286 286 285 285 285 286 286 286 286 286 286 286 286 286 288 290 290 290 291 290 290 289 288 287 287 285 284 283 282 281 281 281 279 278 278 278 278 277 278 277 277 276 276 276 276 276 276 276 275 275 276 276 275 274 273 272 272 271 270 269
290 290 290 290 289 289 289 288 288 287 287 286 286 285 285 285 285 285 284 284 284 284 284 285 285 285 285 285 285 285 286 286 286 286 287 287 287 286 286 287 289 290 290 291 290 290 290 289 288 287 286 284 283 282 282 282 281 280 279 279 278 278 278 279 278 277 276 275 275 275 275 275 276 276 276 277 276 275 274 273 272 271 270 269 268
290 290 290 290 290 289 289 288 288 288 287 287 286 286 285 285 285 284 284 284 284 284 284 283 283 284 285 285 286 286 286 287 286 287 288 288 287 286 285 286 288 290 290 290 290 290 290 289 288 288 287 285 283 282 281 281 281 280 280 279 278 278 280 280 279 278 277 276 275 275 275 276 277 277 277 277 277 276 275 274 272 271 269 269 268
290 290 290 290 289 289 289 288 288 288 288 288 287 287 286 286 285 285 285 284 284 284 283 283 283 284 285 285 286 286 286 287 287 287 288 287 286 285 283 284 287 289 289 289 289 290 290 289 288 287 287 285 284 283 282 281 281 281 280 278 278 279 281 281 279 278 277 276 275 275 275 276 277 277 278 277 276 275 274 273 272 270 269 269 268
290 290 290 289 289 289 289 289 289 289 289 288 288 287 287 286 285 285 285 284 284 284 284 284 285 285 285 285 285 285 286 286 287 287 286 285 284 282 282 283 286 288 289 288 288 288 288 288 288 287 286 285 284 283 282 281 280 280 279 278 278 280 281 280 278 278 277 276 275 275 275 275 276 276 277 276 275 275 274 272 271 270 270 269 267
290 290 290 289 289 289 289 289 289 289 289 288 287 287 287 286 286 286 285 285 285 285 285 285 285 285 285 285 285 285 285 285 285 285 284 282 282 281 281 283 285 287 288 287 287 286 287 287 287 286 285 284 283 283 282 281 280 279 279 279 280 280 279 277 277 276 275 275 275 274 274 275 275 275 276 275 275 274 273 272 271 271 270 269 268
289 289 289 289 289 288 288 288 289 288 288 288 287 287 287 287 287 287 286 286 285 285 285 285 285 285 285 284 284 284 284 284 283 283 282 281 281 281 281 283 285 286 286 285 285 285 285 285 285 284 283 283 282 281 281 280 280 279 279 279 280 279 278 277 276 275 275 275 274 274 275 275 275 275 275 275 274 273 272 271 271 270 270 269 268
289 289 289 289 289 288 288 288 288 288 288 288 287 287 287 287 287 287 286 286 285 285 284 284 284 284 283 283 283 283 283 282 282 282 281 281 280 280 281 282 284 285 284 284 284 283 283 283 282 282 281 281 281 280 280 280 279 279 279 279 279 279 279 278 277 276 276 275 275 275 275 274 274 275 274 274 273 272 271 271 270 270 269 268 267
289 289 289 289 289 288 288 288 288 288 288 287 287 287 287 287 286 286 286 286 285 284 284 283 283 282 282 282 282 282 282 281 281 281 281 280 280 281 281 282 283 283 283 283 283 283 282 282 282 281 281 280 280 280 279 279 279 279 279 279 279 279 279 279 279 278 277 276 275 275 274 274 274 274 274 273 272 271 271 270 270 269 269 268 267
289 289 288 288 288 288 288 288 288 288 287 287 287 287 287 286 286 285 285 284 284 283 283 282 282 281 281 281 282 281 281 281 281 281 281 281 281 281 281 281 282 283 283 283 283 282 282 281 281 281 280 280 280 279 279 279 279 278 279 279 279 279 279 279 279 278 278 277 275 275 274 274 274 273 273 272 271 271 270 270 269 269 268 267 266
288 288 288 288 288 288 287 287 287 287 287 287 287 287 287 286 285 285 284 283 283 283 282 282 281 281 281 281 281 281 280 280 281 281 281 281 281 281 281 281 282 282 282 282 282 281 280 280 280 280 280 280 279 279 279 278 278 278 278 278 278 278 278 278 278 278 277 277 275 275 275 274 273 273 272 272 271 270 270 269 269 269 268 267 266
288 288 288 288 287 287 287 287 287 286 286 286 286 286 286 286 285 284 284 283 282 282 281 281 281 280 280 281 281 280 280 280 280 281 281 281 281 281 281 281 281 281 280 281 281 280 280 279 279 279 279 279 279 279 279 279 278 278 277 277 277 277 277 277 277 277 277 276 276 275 274 274 273 273 272 271 271 270 270 269 269 269 268 266 265
288 288 288 288 287 287 287 287 286 286 286 286 285 285 285 285 285 285 284 284 284 283 282 282 282 282 282 282 281 280 280 281 282 282 282 282 281 281 281 280 280 280 280 280 279 279 278 278 277 277 277 277 277 278 278 278 278 277 277 277 276 276 276 276 276 276 276 276 275 274 274 273 273 272 271 271 270 270 269 269 269 268 266 265 264
288 288 287 287 287 287 287 286 286 286 285 285 285 285 285 285 285 285 285 285 285 284 284 284 284 284 284 283 282 281 282 282 283 282 281 281 280 280 280 279 279 279 278 278 278 277 276 276 276 275 275 275 275 275 276 277 277 277 277 276 276 276 276 275 275 275 275 275 274 274 273 273 272 271 271 270 270 269 268 268 267 266 265 264 263
287 287 286 286 286 286 286 286 286 286 285 285 284 284 284 284 284 284 284 284 284 284 284 284 284 283 283 283 282 282 282 282 281 280 280 279 279 279 278 278 278 278 277 277 276 276 275 275 275 274 274 274 274 274 275 276 276 276 276 276 276 275 275 275 274 274 274 274 274 273 273 272 271 271 270 270 269 268 267 267 266 265 264 263 262
286 286 286 286 286 286 286 285 285 285 285 285 285 284 283 283 283 283 284 284 283 283 283 283 283 282 282 282 281 281 280 280 279 279 278 278 278 278 278 277 277 277 277 277 276 276 275 275 274 274 274 274 274 274 274 275 275 275 275 275 275 275 275 274 274 274 273 273 272 272 271 271 270 270 269 269 268 267 266 266 265 264 263 262 261
287 286 286 286 286 286 286 286 285 285 285 284 284 284 284 283 282 282 282 283 282 282 282 281 281 281 280 280 280 280 279 279 278 278 278 277 278 278 278 278 278 278 278 278 277 277 276 275 275 274 274 274 274 274 274 274 274 274 274 274 274 274 274 274 274 273 273 272 272 271 271 270 270 269 268 267 267 266 266 265 264 263 262 261 261
289 288 287 287 286 286 286 286 285 285 285 284 284 284 283 283 282 282 281 281 281 281 280 280 279 279 279 279 279 279 279 278 278 278 278 278 278 278 278 278 278 278 278 278 278 278 277 276 275 275 275 275 274 274 274 274 274 274 274 274 273 273 273 273 272 272 271 271 271 270 270 269 268 268 267 267 266 265 265 264 263 262 261 261 261
289 288 288 287 287 286 285 285 285 285 284 284 284 284 283 283 283 282 281 280 280 279 279 279 279 278 278 278 278 278 278 278 278 278 278 278 278 278 278 278 278 278 278 278 278 278 277 277 276 275 275 274 274 274 274 273 273 273 273 273 273 272 272 272 271 271 270 270 270 269 269 268 268 267 266 266 265 264 264 263 262 262 261 261 261
288 288 287 287 287 286 285 285 285 284 284 283 283 283 283 282 282 281 280 280 279 279 279 278 278 278 278 278 278 277 277 277 277 277 278 278 278 278 278 278 278 277 277 277 277 277 277 276 276 275 275 274 274 274 273 273 273 273 273 272 272 272 271 271 270 270 270 269 269 269 268 267 267 266 265 265 264 264 263 263 262 261 261 261 260
287 287 286 286 286 286 285 284 284 284 283 283 282 282 281 281 280 280 279 279 279 279 278 278 277 277 277 277 277 276 275 275 276 276 277 277 277 277 278 278 277 277 276 276 276 276 276 276 275 274 274 274 273 273 273 273 272 272 272 272 271 271 270 270 270 269 269 269 268 267 267 266 266 265 264 264 264 263 262 262 262 261 261 260 260
286 286 285 285 285 284 284 283 283 282 282 282 281 281 280 280 279 279 279 278 278 277 277 277 276 276 275 275 275 275 274 274 275 275 275 276 275 275 275 275 275 275 275 275 275 275 275 274 274 273 273 272 272 272 272 272 271 271 271 270 270 270 270 269 269 268 268 267 267 266 266 265 265 264 264 263 263 262 262 261 261 261 261 260 259
285 285 284 284 283 283 283 282 281 281 281 280 280 280 279 279 278 278 277 277 276 276 275 275 275 275 274 274 274 274 273 273 273 273 274 274 273 273 273 274 274 274 273 273 273 273 273 272 272 271 271 271 270 270 270 270 270 270 270 269 269 269 268 268 268 267 266 266 266 265 265 264 264 264 263 263 262 262 262 261 261 261 260 260 259
283 283 282 282 282 282 282 281 280 280 280 279 279 279 278 278 277 276 276 275 275 274 274 273 273 273 273 273 272 272 272 272 272 272 272 271 271 271 271 272 272 272 272 271 271 271 271 271 270 270 270 270 269 269 269 268 268 268 268 268 267 267 267 266 266 265 265 265 264 264 264 264 263 263 262 262 262 262 261 261 261 260 260 260 259
282 281 281 281 281 280 280 280 279 279 279 278 278 277 277 276 276 275 274 274 273 273 273 272 272 272 272 272 271 271 271 271 270 270 270 270 270 270 270 270 270 270 270 270 270 270 270 269 269 269 269 269 268 268 267 267 267 266 266 266 266 265 265 265 264 264 264 264 264 263 263 263 263 262 262 262 262 261 261 261 261 260 259 259 259
281 281 280 280 280 279 279 278 278 278 277 277 277 276 275 275 274 274 274 273 272 272 272 271 271 271 270 270 270 269 269 269 269 269 268 268 268 268 268 268 269 269 269 269 269 268 268 268 268 268 268 267 267 266 266 265 265 265 265 264 264 264 264 264 264 263 263 263 263 263 263 262 262 262 262 262 261 261 261 260 260 259 259 259 258
280 280 279 278 278 278 278 277 277 276 276 275 275 275 274 274 273 273 272 272 271 271 271 270 270 269 269 268 268 268 268 268 267 267 268 268 267 267 267 267 268 267 267 267 267 267 266 266 266 266 266 265 265 265 265 264 264 264 264 264 264 264 264 263 263 263 263 263 263 262 262 262 262 262 262 261 261 261 260 260 259 259 259 258 258
279 279 278 277 277 277 277 276 275 275 274 274 273 273 272 272 272 271 271 271 270 270 269 269 269 268 267 267 267 267 267 267 266 266 267 267 267 267 267 266 266 266 266 266 265 265 265 265 264 264 264 264 264 264 264 264 264 264 264 264 264 263 263 263 263 263 262 262 262 262 262 262 262 262 261 261 261 260 259 259 259 259 258 258 258
278 277 277 276 275 275 275 274 274 273 273 272 272 271 271 271 270 270 270 269 269 269 268 268 267 267 267 266 266 266 266 266 266 266 266 266 266 266 265 265 265 265 264 264 264 264 264 263 263 263 263 263 263 263 263 263 263 263 263 263 263 263 263 263 263 262 262 262 263 262 262 262 262 261 261 261 260 259 259 259 259 258 258 258 258
277 276 276 275 274 273 272 272 272 272 271 271 270 270 269 269 269 269 268 268 268 267 267 267 267 266 266 266 266 266 266 266 266 265 265 265 265 265 264 264 264 264 264 263 263 263 263 263 263 263 263 263 263 263 263 263 263 263 263 263 263 263 263 263 262 262 262 262 262 262 262 261 261 261 260 260 259 259 259 259 259 258 258 258 258
276 275 274 274 273 272 271 271 270 270 270 270 270 269 268 268 268 268 267 267 267 267 266 266 266 266 266 266 266 266 265 265 265 265 265 265 264 264 263 263 263 263 263 263 263 263 263 263 263 263 263 263 263 263 263 262 262 262 262 262 262 263 262 262 262 262 262 262 262 261 261 261 261 260 260 260 259 259 259 259 259 258 258 258 258
274 274 273 273 272 271 270 270 270 269 269 269 269 268 268 268 267 267 267 267 266 266 266 266 266 266 265 265 265 265 265 265 265 264 264 264 263 263 263 263 263 263 263 263 263 263 263 263 263 263 263 263 263 263 263 263 262 262 262 262 262 262 262 262 262 262 262 262 261 261 261 261 261 260 260 260 259 259 259 259 259 258 258 258 258
273 272 272 272 272 271 270 269 269 269 269 269 268 268 268 267 267 267 266 266 266 266 265 265 265 265 265 265 265 265 264 264 264 264 263 263 263 263 263 263 263 263 263 263 263 263 263 263 263 263 263 263 263 263 263 263 263 262 262 262 262 262 262 262 262 262 261 261 261 261 260 260 260 260 260 259 259 259 259 259 258 258 258 258 257
272 272 271 271 271 270 270 269 269 269 268 268 268 267 267 266 266 266 266 265 265 265 265 265 265 264 264 264 264 264 263 263 263 263 263 263 263 263 263 263 263 263 263 263 263 263 263 263 263 263 263 263 263 263 263 263 262 262 262 262 262 262 262 262 262 261 261 261 261 260 260 260 260 259 259 259 259 258 258 258 258 258 258 257 257
270 270 270 270 269 269 269 268 268 268 267 267 267 266 266 266 266 265 265 265 265 264 264 264 264 264 263 263 263 263 263 263 263 263 263 263 263 263 263 263 263 263 263 263 263 263 263 263 263 263 263 263 263 263 262 262 262 262 262 262 262 262 262 262 262 261 261 261 260 260 260 260 260 259 259 259 259 258 259 258 258 258 257 257 257
269 269 268 268 268 268 267 267 267 266 266 266 266 265 265 265 265 265 264 264 264 264 264 263 263 263 263 263 263 263 263 263 263 263 263 263 263 263 263 263 263 263 263 263 263 262 262 262 262 262 262 262 262 262 262 262 262 262 262 262 262 262 262 262 262 261 261 261 260 260 260 260 260 260 259 259 259 259 259 258 258 258 258 258 257
Wind_Speed
35 36 36 37 37 37 38 37 36 35 34 36 39 41 43 44 43 43 41 40 39 38 36 35 33 32 31 30 30 29 27 26 24 23 22 20 19 18 17 16 14 13 13 12 12 11 10 10 10 10 10 9 9 9 8 8 8 8 8 9 9 8 8 7 8 10 14 15 15 16 18 19 20 21 22 25 25 24 24 23 23 21 21 23 22
37 37 37 37 37 37 38 37 36 35 35 36 39 41 43 44 43 43 42 40 39 38 37 35 33 32 31 30 29 28 27 26 25 23 22 21 20 18 17 16 14 13 12 12 12 11 11 11 11 11 11 10 10 10 10 10 10 10 10 11 10 10 9 10 10 11 15 18 17 17 18 18 20 22 22 24 25 25 24 24 23 21 21 23 23
38 37 37 38 38 37 37 37 36 36 37 38 39 41 43 43 43 42 41 40 39 38 37 35 34 32 31 31 29 28 27 26 25 23 22 22 20 19 17 16 14 13 12 12 12 12 13 12 12 12 12 12 11 11 11 11 11 12 12 12 12 11 11 12 12 12 15 18 17 17 17 19 21 23 23 24 24 24 25 25 22 22 23 23 23
37 37 37 36 36 37 37 37 37 37 38 39 40 41 42 42 42 41 41 40 39 38 37 35 34 33 32 31 30 29 27 26 25 24 23 22 20 18 17 15 14 12 12 12 12 13 13 13 12 13 13 13 13 13 13 13 13 14 14 14 13 13 13 13 14 14 16 18 19 18 19 21 22 23 23 24 24 24 26 25 23 23 24 23 23
37 37 36 35 36 36 37 37 38 39 39 39 40 41 42 42 41 41 40 40 39 39 38 36 35 34 33 31 30 29 28 26 25 24 23 21 20 18 16 14 13 12 12 12 13 13 13 12 12 13 14 14 14 14 14 15 15 15 15 15 14 14 14 15 15 16 17 20 22 22 21 21 23 23 22 21 23 26 26 24 24 25 26 25 23
37 37 36 35 36 36 37 38 38 39 39 39 40 41 42 42 42 41 40 40 40 39 39 38 36 34 33 32 31 29 28 27 26 24 23 22 21 18 16 14 13 12 12 13 13 13 13 13 13 15 16 16 15 15 16 16 16 16 16 16 15 15 15 16 16 17 18 20 21 22 23 22 22 22 19 18 21 25 25 25 25 25 25 24 22
36 37 36 36 36 37 37 38 39 39 39 39 40 41 42 42 42 41 41 40 41 40 40 38 36 35 33 32 31 30 29 27 26 24 23 22 21 19 16 15 13 13 13 14 14 14 14 14 15 16 16 16 16 16 17 17 17 17 17 17 16 17 17 18 17 18 19 20 21 22 23 23 21 21 19 18 19 19 19 24 27 27 24 19 20
36 36 36 36 36 37 37 37 38 38 39 39 40 41 42 42 42 42 41 41 41 41 41 39 37 35 34 33 32 30 29 27 26 25 24 23 21 18 17 15 14 13 14 15 16 16 16 16 17 17 17 16 17 18 18 18 17 18 18 18 18 18 19 18 18 18 19 20 21 22 22 22 21 19 17 15 15 14 12 16 22 26 25 18 18
36 36 36 36 36 35 35 36 36 37 37 38 39 40 41 42 42 42 42 42 42 42 41 39 38 36 35 33 32 31 29 28 27 26 24 23 21 19 18 16 15 14 15 16 17 17 18 18 19 18 18 18 19 20 19 19 19 20 20 20 20 20 20 20 19 20 20 20 22 22 21 21 18 15 13 11 11 13 13 13 17 19 20 21 21
36 35 35 36 34 33 34 35 35 36 37 38 39 40 41 42 43 43 43 43 42 42 41 39 38 38 36 35 34 33 32 30 28 26 24 22 21 20 19 18 15 14 16 17 18 19 20 20 20 19 20 21 22 22 21 21 22 22 22 21 21 21 21 21 21 21 21 22 23 22 20 20 16 12 12 12 11 13 13 13 15 15 16 20 21
36 35 35 35 34 33 34 35 36 36 38 38 39 40 41 42 42 42 42 41 41 41 40 39 39 38 37 37 36 35 33 30 27 25 24 23 22 22 21 19 16 16 17 18 19 20 21 22 21 21 22 24 24 23 23 23 23 23 23 23 22 22 22 23 23 22 22 23 24 22 21 21 18 13 11 12 11 12 13 12 13 13 12 15 18
36 35 35 34 34 35 36 37 38 38 39 39 39 40 41 41 40 40 40 40 40 40 39 39 39 38 38 37 36 35 32 29 27 26 25 25 24 23 22 20 18 17 19 20 20 21 22 23 23 24 25 26 26 25 24 25 24 24 24 23 22 22 23 23 23 23 23 24 24 24 22 21 19 13 10 11 12 12 13 12 11 12 12 13 15
34 34 34 34 35 36 37 37 38 38 38 38 38 38 38 39 39 39 39 39 39 39 39 39 39 39 38 37 36 34 31 29 28 27 27 26 25 24 24 22 19 19 20 21 21 22 24 25 26 27 27 28 28 27 26 26 25 24 24 23 22 22 21 21 22 22 24 24 25 26 24 20 18 13 10 13 15 13 13 12 12 13 15 15 15
32 31 32 33 34 35 35 36 36 36 36 36 37 37 37 38 38 38 38 38 39 39 40 40 39 39 39 37 36 34 33 31 30 29 28 26 26 26 26 24 21 21 22 22 23 24 26 26 28 30 31 30 30 29 28 27 26 26 26 25 25 26 25 24 23 23 24 24 27 30 27 20 16 14 14 17 17 14 14 15 14 15 18 21 21
31 30 30 31 32 32 33 33 33 33 34 35 35 36 37 37 38 38 39 39 40 41 41 40 40 39 38 37 36 36 35 33 31 30 29 28 27 29 29 27 24 24 24 23 24 26 27 28 30 33 34 33 32 30 29 28 27 27 27 28 29 30 30 30 29 28 28 27 28 30 27 21 20 20 20 19 17 16 17 17 16 18 23 26 27
31 30 30 30 31 31 32 32 33 33 33 34 35 35 36 37 37 38 38 38 39 39 39 39 40 40 39 38 37 37 36 33 32 31 30 29 30 31 32 31 29 28 27 25 26 28 29 31 33 35 36 35 34 32 29 29 29 29 29 30 31 32 33 32 31 32 33 32 33 34 32 29 27 25 22 19 16 16 16 16 17 20 24 26 28
30 30 30 31 33 33 34 34 34 34 34 34 34 35 36 36 36 36 36 35 35 36 38 39 39 39 39 37 37 37 36 34 34 33 32 32 33 35 36 36 33 31 29 28 28 29 32 33 35 37 38 38 36 33 30 30 31 32 31 32 33 35 35 33 32 33 34 34 34 34 33 31 27 24 22 20 17 14 15 19 21 22 21 18 21
30 31 32 33 34 34 34 35 34 34 34 35 35 35 34 34 34 34 34 34 35 36 36 36 35 35 36 36 36 37 37 36 35 35 35 37 38 39 39 39 36 34 32 30 30 31 33 36 37 38 40 39 38 35 31 31 32 33 34 33 34 37 37 35 34 34 34 33 33 31 30 28 25 24 24 23 21 19 21 24 24 23 21 16 17
31 32 32 32 32 33 33 33 33 33 34 35 35 34 34 33 33 33 33 33 33 33 32 31 32 33 34 35 36 37 38 37 37 37 39 40 41 40 39 38 37 36 34 33 32 33 35 37 39 39 41 40 38 36 34 32 33 34 35 34 35 39 40 36 35 34 33 31 31 30 29 27 26 27 28 27 25 25 25 23 22 23 23 21 21
31 30 30 30 31 32 33 34 34 34 34 34 34 33 32 32 31 31 31 31 30 30 30 31 32 33 34 35 37 38 39 39 39 39 40 41 41 39 38 37 37 36 35 34 33 34 36 38 39 41 41 40 39 38 35 32 32 33 34 35 38 41 39 35 34 33 30 29 28 27 27 26 27 30 31 29 28 26 23 19 19 21 23 25 24
27 27 28 29 30 32 32 33 34 33 33 32 31 31 30 30 30 30 30 30 30 31 31 32 33 34 35 36 37 38 39 39 39 38 39 39 39 38 37 37 37 35 34 34 35 36 37 38 40 40 40 39 38 37 34 32 30 31 34 37 40 39 36 33 32 29 27 27 26 25 24 25 28 31 32 31 28 25 20 18 18 20 21 23 24
26 27 27 28 29 30 30 31 31 31 30 30 29 29 29 29 30 30 30 31 31 31 31 32 32 33 34 34 36 36 37 37 37 37 37 37 37 37 36 37 36 34 33 35 36 37 38 39 39 39 39 39 38 36 34 31 28 30 34 35 34 32 30 31 30 27 26 26 25 25 26 27 30 31 31 30 26 22 19 17 17 20 21 22 23
26 26 27 27 28 29 29 29 29 29 29 29 29 29 29 29 29 29 30 30 30 30 30 30 29 30 31 32 33 33 34 34 35 36 37 36 35 35 35 35 34 32 33 37 38 38 38 38 39 39 38 38 37 35 34 31 30 32 33 31 28 27 27 28 29 27 27 25 25 26 26 27 30 31 30 27 23 18 17 17 18 19 20 21 22
25 26 27 27 27 28 28 28 29 29 29 29 29 29 29 28 28 28 28 28 28 28 28 28 28 28 29 30 31 32 32 33 33 34 34 34 33 34 35 35 34 32 33 37 38 38 39 39 40 39 38 37 36 36 35 33 32 33 32 28 26 26 27 28 29 27 27 27 27 27 26 26 29 30 27 23 19 16 16 16 17 18 19 21 22
25 26 26 26 26 27 27 27 27 28 28 28 28 28 27 27 27 27 27 27 27 27 27 27 27 28 28 29 30 30 30 30 31 31 31 31 31 32 34 35 36 34 35 38 40 40 40 39 37 36 36 35 34 33 33 32 30 29 28 26 25 25 26 28 28 28 29 28 27 27 27 28 29 27 23 19 16 15 15 16 16 17 19 21 23
25 25 25 25 26 26 26 26 26 26 26 26 26 26 27 27 27 27 27 27 27 26 26 26 26 27 27 27 28 27 26 26 27 28 28 28 29 30 31 33 34 34 35 38 38 38 38 35 32 30 30 30 30 30 30 31 30 29 27 26 25 25 25 26 27 28 30 30 29 28 29 28 26 22 19 18 16 15 14 15 17 18 19 21 23
25 25 25 25 25 25 25 26 26 25 25 25 25 25 25 25 26 27 27 27 27 26 25 24 24 25 25 26 25 23 22 23 24 24 24 25 26 27 27 28 29 30 31 33 33 33 35 34 32 31 29 28 28 28 28 28 28 28 27 26 26 26 26 27 28 30 31 30 30 30 28 25 23 21 19 18 16 15 14 16 18 19 19 19 21
25 25 25 25 25 25 25 25 26 26 25 25 25 25 24 25 25 26 25 25 25 25 24 24 24 24 24 24 22 21 21 22 22 22 21 21 21 22 22 23 23 24 25 26 26 27 29 31 32 31 29 28 27 26 25 25 24 24 24 25 26 26 27 27 28 31 31 30 28 26 24 22 21 21 19 17 16 15 14 16 18 19 18 17 19
24 24 24 24 24 24 24 24 24 25 24 24 23 23 22 22 23 22 21 21 20 20 20 21 21 20 20 20 19 19 20 20 18 17 17 17 17 18 18 19 19 19 20 19 21 23 25 27 28 27 25 24 24 23 22 22 22 22 23 23 24 25 26 27 28 30 30 28 26 24 22 22 21 20 19 18 17 15 15 16 17 17 17 16 17
24 24 24 24 24 24 23 23 22 22 23 23 23 21 19 19 19 19 18 17 17 17 17 17 17 16 17 18 17 17 18 18 17 16 16 16 16 16 16 16 15 16 15 14 16 20 22 23 24 23 21 21 21 21 20 18 19 21 22 22 23 23 25 26 27 29 28 26 25 24 22 21 20 20 19 19 17 15 15 15 16 16 16 16 17
24 24 23 23 23 23 22 22 21 21 20 21 21 21 19 17 17 17 17 16 16 16 16 16 16 16 16 16 16 16 16 16 16 15 14 13 12 12 12 12 12 13 12 12 15 19 19 19 20 20 19 19 19 20 19 17 17 19 20 21 22 23 24 25 25 26 26 25 23 23 21 20 20 20 19 18 16 15 14 14 15 16 16 16 16
24 23 22 21 21 20 20 20 20 20 20 20 20 20 19 17 15 15 15 16 15 15 14 14 15 15 14 14 13 13 12 11 11 11 10 10 10 10 11 11 12 12 12 13 17 19 18 18 18 17 17 17 17 18 19 18 17 18 18 19 20 21 22 22 22 21 21 21 21 20 20 19 19 18 17 15 14 14 14 14 15 15 15 15 16
21 22 21 20 20 20 19 19 20 20 19 19 19 19 19 18 16 14 12 12 12 12 12 11 11 10 9 9 9 9 9 9 9 9 8 8 9 9 10 10 11 12 12 14 18 19 17 17 17 17 16 17 18 18 19 19 19 19 19 19 19 19 19 18 18 17 17 17 17 17 17 16 15 14 14 13 13 14 15 15 15 14 14 15 16
18 20 20 20 20 20 19 18 18 18 17 17 17 17 16 16 15 13 12 11 10 9 9 9 9 9 9 8 8 8 7 7 8 8 8 9 9 9 10 10 10 11 12 14 17 17 16 16 16 16 16 18 18 18 19 20 19 19 19 20 19 18 17 16 15 14 14 13 13 13 13 13 13 13 13 13 13 15 15 15 14 14 14 15 16
17 17 17 17 17 17 16 16 15 15 15 14 13 13 13 12 12 11 10 10 10 8 8 8 8 9 9 9 9 8 6 6 7 7 8 9 9 9 10 12 12 12 12 13 15 16 15 14 13 13 13 14 15 17 18 19 19 18 18 18 18 17 16 14 13 12 11 11 12 12 12 13 13 13 13 13 14 16 15 14 14 14 14 15 15
17 17 16 15 14 14 14 14 13 12 13 12 12 11 11 10 9 8 7 7 7 6 6 6 6 7 7 8 8 8 5 3 2 3 4 6 7 8 9 10 11 11 11 12 14 15 16 15 14 14 13 12 12 13 13 14 14 14 13 13 13 13 12 12 11 12 12 12 12 12 12 13 13 13 14 14 15 15 14 14 13 13 14 14 14
16 17 17 15 15 15 14 14 13 12 12 11 11 10 9 8 8 7 6 6 6 5 5 5 4 5 5 6 6 6 6 4 4 5 6 7 7 8 8 9 10 9 8 9 11 12 13 14 13 13 12 11 10 9 9 9 9 9 9 10 10 11 11 12 13 13 13 13 13 13 13 14 14 14 14 14 14 14 13 13 12 13 14 14 13
15 16 16 15 15 15 15 14 13 12 12 11 10 9 9 8 8 7 6 6 5 5 4 4 4 4 4 4 4 4 6 7 8 8 9 8 7 7 8 9 10 9 8 8 9 9 10 11 11 10 10 10 10 10 9 10 10 11 11 12 12 13 13 14 15 14 13 13 13 13 14 14 13 13 13 13 13 13 13 12 13 14 14 14 13
16 15 15 15 14 14 13 13 13 12 12 11 10 10 9 9 8 8 7 7 6 5 5 4 3 3 3 3 3 3 4 5 7 8 8 8 9 8 9 10 10 10 11 11 11 11 11 11 12 12 12 13 13 13 13 13 13 13 14 14 14 14 14 15 14 14 13 13 13 13 13 13 12 12 12 12 12 12 12 13 13 14 14 14 14
17 16 15 14 14 14 13 13 13 13 12 12 11 10 10 10 9 9 8 7 7 6 5 4 3 2 2 2 2 3 3 3 5 6 7 8 9 9 10 11 11 12 13 13 13 14 14 14 14 15 15 15 15 15 14 14 13 13 13 13 13 13 13 13 13 13 12 12 13 12 12 11 10 11 11 12 12 12 13 13 13 13 13 14 14
16 17 16 14 14 15 15 14 13 13 12 12 12 11 11 10 9 9 8 8 7 6 5 4 3 2 2 1 1 2 4 4 4 5 6 7 8 8 9 10 11 11 12 13 13 14 14 14 15 15 15 14 14 13 13 12 11 11 11 11 11 11 11 11 12 12 12 12 12 11 10 10 10 11 11 11 12 12 13 13 13 13 13 13 13
16 17 17 16 15 15 15 15 15 14 13 13 12 12 11 10 10 9 9 8 7 6 6 5 4 4 4 4 3 3 4 4 4 5 5 5 6 7 8 8 10 10 11 12 12 12 12 12 13 13 13 13 12 12 11 10 10 10 10 10 10 11 11 11 11 11 11 10 10 9 9 9 10 11 12 12 12 13 13 13 13 12 13 13 13
16 17 17 16 16 15 15 16 16 15 14 14 13 12 11 11 10 9 8 8 7 6 6 6 5 5 5 5 4 4 4 4 4 5 5 6 7 8 8 9 10 10 11 11 12 12 12 11 11 11 11 11 11 11 11 10 10 10 10 11 11 11 11 11 10 9 9 9 8 9 10 10 12 13 13 13 13 13 13 13 13 12 13 13 13
17 18 18 17 17 16 16 16 16 15 15 14 13 13 12 11 10 9 8 8 8 7 6 6 5 5 4 4 4 4 4 5 6 6 6 7 8 9 10 10 11 11 12 12 12 12 11 10 9 10 10 10 10 10 10 11 11 11 11 11 12 12 11 10 9 8 9 10 10 11 12 12 13 14 14 13 13 13 13 13 13 12 13 13 13
17 18 18 18 18 18 17 16 15 15 15 15 14 13 12 10 10 9 8 7 7 6 5 5 4 4 4 4 4 4 5 6 6 7 7 8 8 9 10 10 10 11 11 11 11 10 9 9 9 9 9 9 9 10 10 11 11 12 12 12 12 12 11 10 10 10 11 12 12 13 13 14 14 14 14 14 13 13 13 13 12 12 12 12 12
17 17 18 19 19 18 17 16 15 15 14 13 13 13 11 10 9 8 7 6 6 5 4 4 3 3 3 4 5 5 6 7 7 8 8 8 8 9 9 9 9 10 10 10 10 9 9 9 9 9 9 10 10 10 10 11 11 12 12 13 13 13 12 12 12 13 13 13 14 14 15 15 15 14 14 14 13 13 13 13 12 12 12 11 11
17 17 17 17 18 18 17 16 15 14 13 12 11 11 10 9 8 7 6 5 4 4 3 3 3 3 4 5 5 6 7 8 8 8 8 8 8 8 9 9 9 9 9 10 10 10 10 10 10 11 11 11 11 11 11 11 12 12 13 13 13 13 13 13 14 14 14 14 15 15 15 15 15 14 14 14 14 14 13 12 12 11 11 11 11
16 17 16 16 16 16 15 14 13 13 12 11 10 9 8 7 6 5 5 4 3 2 2 3 3 4 5 5 6 7 7 7 8 8 8 8 8 8 9 9 9 9 10 10 10 11 11 11 11 12 12 12 12 12 12 12 12 13 13 13 14 14 14 14 14 15 15 15 15 15 15 15 15 14 14 14 14 14 13 12 12 11 11 11 11
15 15 15 15 14 14 13 12 12 11 10 9 9 8 7 6 5 4 3 2 2 2 3 3 4 4 5 5 6 6 7 7 7 8 8 8 8 9 9 10 10 10 11 11 11 11 12 12 12 12 13 13 13 14 14 14 14 14 14 14 14 14 14 15 15 15 15 15 15 15 15 15 15 15 14 14 14 13 13 12 12 12 11 11 11
13 13 13 13 12 12 11 10 10 9 8 8 7 6 5 5 4 3 2 2 3 3 3 4 4 4 5 5 6 7 7 8 8 8 9 9 9 9 10 10 11 11 11 11 11 12 12 12 13 13 14 14 15 15 16 15 15 14 14 14 14 14 14 14 15 14 14 15 15 14 15 15 15 15 15 14 14 14 13 12 12 12 11 10 9
12 12 11 11 10 10 9 9 8 8 7 6 5 5 4 4 3 2 2 2 3 3 4 4 4 5 5 6 7 8 8 9 9 10 10 10 10 10 11 11 11 11 12 12 12 13 13 14 14 15 15 15 16 16 16 16 15 14 14 14 13 14 14 15 15 15 15 15 15 15 15 16 16 15 15 14 13 13 12 12 11 10 9 8 8
Wind_Direction
201 203 204 205 206 207 205 204 205 207 208 208 206 201 197 194 192 192 192 191 191 190 190 189 189 188 188 188 187 185 184 182 183 185 187 189 190 188 184 181 183 181 176 176 176 180 189 193 201 207 208 213 218 222 227 232 240 243 244 247 248 251 252 239 239 263 279 285 289 291 296 303 308 314 317 319 325 327 329 334 336 337 337 339 346
202 204 205 206 207 207 207 206 206 207 208 208 205 201 197 194 193 193 193 192 192 192 192 191 190 191 190 191 190 188 186 185 186 187 189 193 194 192 190 189 189 188 186 188 189 193 200 203 209 214 215 219 223 228 233 237 242 245 247 249 252 254 255 253 253 266 281 287 290 291 297 303 306 313 317 320 324 325 327 333 334 334 335 337 341
204 204 205 206 206 206 207 208 208 208 208 207 204 200 198 195 195 195 194 193 192 193 194 193 192 193 193 193 192 191 189 188 189 191 193 196 198 197 197 197 198 197 196 199 202 206 209 211 214 218 222 226 229 233 238 241 243 246 250 251 253 257 260 260 261 265 277 287 290 293 298 303 306 312 317 321 323 323 326 330 331 332 333 335 336
204 204 204 204 204 204 206 207 208 208 207 206 203 201 199 197 196 196 195 194 193 194 195 195 195 195 196 196 195 193 192 191 192 195 196 199 203 205 203 202 204 207 209 212 215 217 218 219 221 225 229 231 235 239 241 244 246 247 251 254 255 258 260 263 265 265 272 280 285 291 296 302 307 311 317 321 321 321 324 327 327 329 331 332 332
204 203 203 203 203 204 206 207 207 206 205 204 203 201 200 198 197 197 196 195 195 195 196 197 198 198 198 198 198 196 195 195 196 198 199 202 207 210 209 208 209 214 219 223 226 227 228 229 230 232 235 236 240 244 244 246 248 248 251 254 255 257 260 263 265 266 267 272 281 290 296 301 305 310 317 321 319 319 323 324 325 327 329 330 329
203 203 202 202 203 204 205 206 206 205 204 203 203 202 201 200 199 197 197 197 197 197 198 198 199 200 200 201 201 200 199 198 200 201 202 204 208 210 211 211 214 220 227 231 234 236 236 237 238 238 241 244 246 248 248 248 248 250 253 254 255 257 258 261 263 265 267 271 280 289 293 298 304 307 313 316 315 318 322 322 322 324 328 329 325
202 202 202 202 203 204 205 205 206 205 204 204 203 203 202 201 200 199 198 199 199 199 200 200 201 201 202 204 204 204 203 202 202 204 205 208 210 211 211 213 218 226 234 238 240 242 242 242 243 244 247 251 252 252 251 249 250 253 255 254 255 256 256 258 260 262 265 271 278 284 289 294 298 301 306 309 311 316 320 321 320 321 325 325 318
201 201 201 202 204 205 205 205 206 205 205 204 204 203 203 202 201 201 200 200 201 202 202 202 201 202 204 206 207 207 206 205 205 206 208 211 213 214 215 217 223 232 239 243 245 247 247 246 245 248 252 255 255 254 253 252 253 254 255 253 252 253 255 256 257 259 263 269 275 279 285 289 292 296 300 305 309 312 315 317 314 314 319 317 312
200 200 201 202 204 205 204 204 205 204 203 203 204 204 203 203 203 202 202 202 203 204 204 203 202 202 204 207 209 210 209 208 208 209 211 213 214 217 218 221 228 237 244 249 251 252 251 249 249 251 255 256 256 254 253 254 256 256 256 255 253 253 254 254 254 257 261 265 269 273 279 282 284 289 291 293 301 305 308 310 306 307 312 310 309
199 199 200 202 203 203 202 203 203 202 203 203 204 204 204 204 204 203 203 203 203 204 203 203 203 204 205 207 209 210 210 210 210 211 212 215 218 220 221 223 228 237 245 251 254 255 255 253 253 255 258 257 255 254 255 256 257 257 257 257 256 255 254 253 254 256 258 260 263 266 270 272 274 277 281 287 294 298 303 305 303 305 311 313 314
198 199 201 201 201 201 201 202 202 202 203 204 204 204 204 204 204 203 203 202 202 203 203 203 204 206 207 209 210 211 211 211 211 212 214 218 221 223 223 225 230 238 244 249 254 258 258 257 258 259 259 258 256 255 256 257 259 259 259 258 258 257 255 254 256 257 257 258 261 262 261 266 273 273 274 284 291 294 296 297 297 301 309 313 311
199 199 200 200 200 201 201 201 201 202 203 203 203 204 204 203 203 202 202 202 202 203 204 205 206 207 209 211 212 212 212 212 212 214 216 219 222 224 225 228 235 242 245 247 253 259 260 261 262 262 261 260 259 258 257 258 259 260 262 263 263 262 260 259 261 261 259 258 260 260 257 262 272 270 264 277 286 288 290 287 283 287 292 296 296
200 199 199 199 200 201 201 200 200 200 200 201 202 202 202 202 202 203 203 203 203 204 206 207 208 208 209 211 213 214 214 213 214 216 218 221 223 225 226 230 239 248 249 249 252 257 261 263 265 266 265 262 261 260 260 260 260 260 261 261 260 259 257 258 263 265 263 261 258 258 258 262 267 263 260 276 284 283 281 276 272 278 282 285 287
199 199 198 198 199 199 199 199 199 199 198 199 200 201 202 203 204 205 205 204 205 206 207 208 208 209 211 212 214 216 216 215 216 218 220 223 226 228 228 233 242 250 251 251 252 255 259 263 265 268 267 264 262 262 262 263 264 263 260 256 255 255 250 250 254 255 256 258 259 262 264 259 254 259 270 280 283 276 270 269 271 279 285 288 289
198 199 197 197 197 197 197 196 196 196 197 198 199 201 202 203 204 206 206 207 208 208 208 208 209 211 213 214 215 217 217 216 217 221 223 225 228 230 230 234 242 249 250 252 254 255 256 259 262 265 266 265 264 263 263 266 267 265 262 259 258 258 255 254 256 255 252 251 255 261 263 257 254 264 276 282 279 268 264 268 276 287 293 295 294
197 197 196 196 196 197 196 194 194 196 196 197 198 200 202 204 205 206 207 207 208 208 209 210 212 213 213 214 215 218 219 219 219 223 225 227 230 233 233 235 240 246 250 254 258 258 256 256 258 261 264 265 265 264 265 267 267 265 264 263 262 262 261 261 263 261 258 256 256 258 259 259 262 267 273 277 270 259 262 276 288 295 299 300 298
195 195 196 196 196 197 197 196 195 195 195 196 198 200 203 204 205 206 206 206 207 209 211 212 213 213 213 214 216 219 220 221 222 224 227 229 231 233 234 234 237 244 249 254 259 262 260 258 259 261 263 265 266 265 264 265 267 266 264 264 265 264 265 267 266 263 260 260 260 259 258 258 258 260 262 260 250 247 267 287 295 298 299 299 298
195 195 197 198 197 197 198 196 195 194 195 197 199 201 203 204 206 207 207 208 210 212 213 213 213 215 216 217 220 223 225 225 225 227 231 233 233 233 233 233 237 244 249 254 260 264 262 260 260 261 263 264 265 265 264 263 264 264 263 264 263 264 267 271 269 265 263 261 259 256 254 253 254 255 253 246 242 253 273 287 294 294 291 288 289
196 196 198 198 197 197 197 197 197 196 197 200 202 203 204 205 207 209 210 211 213 213 214 215 217 219 221 223 225 226 228 229 228 230 234 235 233 232 231 232 236 243 249 255 261 265 264 261 261 262 263 264 264 265 264 261 259 260 262 261 260 265 271 273 270 269 268 264 260 256 252 250 249 249 248 247 252 262 272 283 290 288 285 284 283
196 196 197 197 197 198 198 198 199 200 201 202 203 203 204 204 205 208 210 212 214 216 218 221 223 225 226 227 228 229 230 231 231 233 234 234 232 230 229 231 236 244 251 257 261 264 265 264 264 263 264 264 265 266 265 261 258 258 257 256 258 266 272 273 271 272 271 267 264 259 254 251 247 246 248 251 256 261 265 279 289 286 284 284 281
194 194 195 196 197 198 199 199 201 202 202 202 201 202 204 205 206 209 211 212 214 217 220 223 225 228 230 231 232 232 233 234 234 234 234 233 232 230 230 233 238 246 254 259 261 263 265 267 267 266 265 264 265 265 264 262 259 257 257 259 263 269 272 271 270 271 269 267 265 261 256 252 248 248 249 251 252 255 263 279 288 288 287 283 278
192 192 193 194 195 196 198 199 200 200 201 201 200 201 203 206 209 211 212 213 215 217 220 223 226 229 232 234 236 237 238 239 238 237 236 234 232 232 233 236 242 248 255 259 261 263 266 267 268 267 266 265 265 264 263 261 257 257 260 264 268 270 270 269 269 267 264 263 260 258 257 253 251 250 249 247 248 255 268 281 287 289 289 283 278
189 189 190 192 194 196 197 198 199 199 200 201 201 202 203 206 209 212 212 213 215 217 220 224 226 229 233 235 238 240 241 242 241 240 239 237 235 235 236 238 243 249 256 261 263 266 269 270 271 270 269 268 267 265 263 259 255 256 260 263 265 265 265 266 265 262 258 255 252 252 252 250 250 251 248 245 249 260 276 288 291 292 291 286 282
186 186 188 190 192 195 197 197 198 199 200 201 200 201 203 205 208 211 213 214 215 217 220 222 224 228 232 235 238 240 241 242 242 242 243 242 241 241 241 242 246 251 258 264 268 270 272 273 273 273 272 271 271 270 268 263 259 259 261 262 262 262 261 261 261 259 256 252 249 248 246 245 250 251 248 247 255 270 285 294 297 297 296 291 287
182 183 186 189 191 193 194 195 197 199 200 201 201 201 203 204 206 209 211 213 215 216 218 221 223 227 231 235 239 241 242 243 243 244 247 247 247 248 248 249 252 255 260 265 269 272 273 274 275 276 275 275 274 272 267 263 259 259 259 260 261 262 260 260 260 260 259 255 251 249 248 249 252 253 250 253 264 279 293 298 301 305 304 296 290
180 182 185 187 189 190 191 192 195 199 201 203 205 206 206 205 205 207 208 210 214 217 218 221 223 227 232 237 241 243 244 246 248 249 250 251 252 253 254 255 257 259 262 266 268 270 271 271 272 273 275 276 274 270 267 266 266 264 261 259 258 258 258 259 259 258 257 255 254 253 253 254 255 254 253 259 270 282 292 297 303 308 305 298 292
177 179 182 184 186 189 190 190 193 196 199 201 204 206 208 207 206 206 207 208 211 214 217 221 223 227 233 239 243 246 248 250 252 253 253 255 257 259 259 260 262 262 263 267 270 271 272 271 270 268 269 271 272 271 271 271 268 265 261 257 254 254 255 257 259 259 258 257 255 255 256 256 256 254 255 262 272 282 289 295 302 305 302 297 293
176 178 180 183 185 187 190 190 191 192 195 198 200 203 205 207 208 210 212 212 213 215 218 223 227 232 238 243 245 246 249 253 257 261 264 266 267 267 266 266 267 267 268 272 275 276 276 276 274 272 271 271 271 270 270 269 266 262 259 257 255 254 253 255 257 259 260 259 257 256 256 255 253 254 259 266 273 281 288 293 298 299 297 293 289
174 175 177 180 182 184 187 189 190 191 192 195 199 204 207 210 214 218 221 224 226 228 230 234 239 244 247 250 250 250 255 263 271 275 276 274 274 273 272 272 273 273 274 277 278 278 276 276 276 277 277 276 274 270 268 267 267 265 262 260 258 255 251 250 252 254 257 257 255 255 255 255 255 258 264 271 276 281 288 292 294 294 292 287 283
169 170 174 177 178 181 184 186 188 191 191 192 196 201 207 213 219 223 227 231 234 238 242 247 252 255 256 258 259 259 265 274 280 281 280 280 279 279 278 277 277 276 276 275 274 275 276 276 277 278 278 279 277 273 270 267 266 265 264 263 261 256 252 251 250 251 253 254 254 255 255 256 260 265 269 274 277 281 286 290 292 290 287 283 282
164 167 172 175 177 179 182 183 186 189 191 194 196 197 201 208 216 223 228 231 235 239 244 248 254 257 259 262 265 266 269 274 276 279 281 279 275 272 270 269 269 270 270 267 266 268 270 271 274 278 279 279 277 275 274 272 269 268 268 267 265 261 258 258 256 254 254 254 255 256 258 261 267 270 271 273 276 281 287 291 290 286 283 282 282
164 166 171 174 176 179 182 183 185 188 190 193 197 199 200 201 205 215 224 228 232 237 242 247 253 258 263 267 270 272 274 276 277 277 273 265 259 257 257 257 258 259 259 258 260 261 261 262 266 271 274 277 278 279 278 274 270 269 269 269 269 267 266 266 265 262 260 258 258 261 264 268 269 268 268 270 277 285 291 291 289 287 284 283 284
166 166 169 172 175 179 182 184 186 188 190 192 195 199 202 202 201 204 211 219 225 230 233 238 244 249 255 259 265 271 277 281 283 282 273 262 257 256 255 256 257 257 254 253 256 260 262 265 267 266 265 269 274 277 277 274 270 268 267 267 269 270 270 269 267 265 264 263 264 267 269 268 265 261 264 274 283 288 291 290 290 289 284 283 286
167 165 167 170 173 176 180 183 185 187 190 192 194 198 203 207 208 206 203 205 209 213 218 226 232 235 237 236 240 249 259 264 269 273 270 263 261 259 258 258 256 254 253 253 256 261 267 271 273 270 267 267 269 271 273 274 272 270 268 267 267 267 268 266 264 264 266 266 267 269 267 262 259 261 269 281 286 287 289 290 289 288 283 281 286
163 162 163 167 170 171 174 178 180 183 186 188 191 195 197 202 206 206 202 202 203 205 212 222 231 239 243 240 238 242 250 261 268 269 266 263 262 261 259 258 253 248 249 251 254 259 267 274 280 282 281 278 275 272 271 272 272 270 268 267 266 263 263 264 264 264 267 268 267 267 263 259 262 270 278 284 285 285 287 288 286 284 283 283 287
156 155 153 157 161 161 163 167 170 175 179 180 183 187 188 191 194 193 191 194 195 197 203 210 220 235 246 248 245 245 252 274 288 261 243 241 244 248 256 261 258 250 247 248 248 252 259 267 274 280 284 286 283 277 271 269 269 269 266 262 259 257 258 260 263 266 270 270 268 265 261 262 271 278 280 282 284 283 283 285 283 282 283 286 289
153 152 151 153 155 155 156 159 160 163 167 169 172 174 173 173 175 174 174 178 182 186 194 200 205 215 230 242 243 235 229 219 208 214 228 240 250 255 258 264 266 262 255 250 246 247 252 258 263 268 272 277 280 278 274 270 268 268 265 260 257 258 260 263 266 268 269 267 265 263 265 269 276 280 279 279 280 280 280 282 282 281 283 285 285
150 151 151 152 154 156 155 155 155 157 158 159 161 163 161 159 160 162 162 164 167 169 171 175 180 189 205 226 237 227 217 217 222 231 241 251 259 258 253 257 264 268 268 264 260 257 258 261 265 269 272 278 281 280 278 274 271 270 269 266 263 262 262 265 267 267 264 262 262 263 267 272 274 275 274 273 274 276 279 279 278 278 281 281 279
148 148 151 152 153 154 155 154 154 155 156 155 155 156 156 155 155 156 156 155 153 152 152 157 169 181 193 215 234 237 228 225 231 241 247 252 258 259 257 259 264 268 272 274 274 274 273 274 278 281 283 285 286 285 282 278 274 271 269 266 263 262 263 264 265 263 260 261 263 265 267 270 269 267 266 268 271 275 276 276 276 276 278 281 284
151 150 153 154 154 153 154 154 155 155 154 153 153 153 153 153 151 151 151 150 148 149 151 154 160 172 186 206 235 250 246 235 236 243 249 253 258 260 260 261 263 265 269 272 274 277 279 280 282 284 285 285 284 283 280 277 274 270 266 264 262 261 261 260 260 261 262 265 266 266 265 265 264 263 265 270 273 274 274 273 275 276 278 282 287
155 153 153 154 156 155 153 152 152 151 151 151 151 151 151 150 149 149 149 149 149 150 151 153 155 163 162 139 166 235 240 239 243 249 254 257 258 260 263 265 266 268 269 272 274 276 278 279 280 281 281 281 280 279 277 274 271 266 263 261 260 260 261 261 262 265 267 266 265 264 264 265 266 267 270 273 273 271 271 273 275 278 281 284 287
157 156 153 153 155 155 153 151 150 150 150 150 149 150 150 148 148 148 148 147 148 148 148 150 155 158 151 144 159 214 237 245 251 260 267 268 266 268 269 270 272 273 273 274 277 278 278 280 280 280 279 278 276 275 272 269 265 262 259 259 261 262 264 266 266 266 265 265 265 267 269 269 269 268 269 270 269 268 271 273 276 280 283 285 287
156 155 152 152 153 154 152 151 150 150 151 149 146 146 147 145 145 147 146 145 146 149 149 151 157 166 172 181 204 232 247 253 255 262 271 272 271 275 277 276 277 278 278 279 281 282 283 283 280 278 277 275 273 272 270 266 263 261 260 260 262 262 263 264 265 265 266 268 269 269 267 266 266 267 267 268 269 269 271 274 277 282 284 286 288
155 153 150 150 150 150 149 150 150 148 146 145 143 142 143 143 143 144 144 144 144 146 148 151 158 171 186 203 225 243 252 259 263 267 271 271 271 273 274 273 274 276 277 279 282 282 283 283 278 274 274 273 271 271 269 265 264 264 262 261 262 262 264 266 266 266 266 264 263 264 264 263 264 266 267 269 270 270 272 274 278 282 284 285 289
155 153 151 150 149 148 146 146 146 145 143 142 141 139 139 141 142 140 141 143 144 146 152 157 165 181 200 219 239 250 257 264 269 271 273 273 273 272 270 270 273 274 274 277 279 280 281 281 279 277 276 274 271 270 268 266 266 266 265 265 267 268 270 271 268 266 266 266 266 266 265 265 265 266 268 270 270 270 272 276 279 281 284 287 291
154 153 152 150 147 145 143 143 142 142 141 141 140 138 138 140 140 139 141 145 146 149 158 167 181 205 226 244 257 265 270 273 274 276 276 274 272 271 270 271 273 273 273 275 278 282 284 283 281 281 279 275 273 272 270 269 270 269 268 270 271 272 273 272 269 268 269 269 268 267 266 266 268 269 270 271 270 270 273 277 279 281 284 287 291
152 150 149 148 145 142 141 142 141 141 140 139 139 139 140 140 141 143 146 149 153 163 177 199 224 244 257 266 270 274 277 278 276 276 274 272 271 272 274 276 276 276 277 280 282 283 285 284 282 282 280 278 278 278 276 275 274 273 272 273 272 272 271 270 268 269 270 268 268 268 268 269 271 271 271 271 271 272 275 278 279 282 285 287 288
148 145 144 145 144 142 143 143 143 143 143 142 141 143 144 145 148 151 155 162 175 195 219 244 257 264 270 274 275 275 276 275 274 274 272 272 274 275 276 278 279 278 279 282 283 283 284 283 281 281 281 281 281 281 280 278 277 275 274 274 272 271 270 269 268 269 268 267 268 269 269 271 272 271 271 271 271 272 276 278 279 281 283 285 287
144 144 143 144 144 143 144 145 145 145 145 146 148 149 150 153 158 163 171 192 218 235 247 256 262 266 269 271 271 271 272 271 272 274 274 274 277 278 277 278 279 279 279 281 281 281 281 282 281 281 282 282 282 282 281 281 279 278 276 274 271 269 269 268 268 268 267 267 269 269 269 271 271 270 269 270 270 271 273 274 276 279 280 281 285
143 144 144 145 144 144 144 145 146 146 147 150 153 154 155 160 169 177 193 214 228 239 247 254 258 263 266 267 267 269 272 273 273 275 276 277 277 276 276 276 277 278 280 281 281 282 282 282 282 283 282 281 282 282 281 281 280 278 274 271 268 267 267 266 267 267 266 267 268 268 268 268 268 268 268 268 267 269 271 272 272 275 276 277 280
144 144 144 144 143 143 144 146 146 147 150 152 154 155 158 164 172 181 198 215 228 238 246 252 257 260 264 269 270 271 272 274 275 276 277 278 277 275 275 276 277 278 281 282 283 283 284 283 282 282 282 280 280 280 279 278 276 274 271 268 266 265 265 266 266 267 267 267 266 266 265 266 266 266 266 266 265 267 269 270 269 270 273 273 274